Regional Weather Roundup
Issued by NWS Cleveland, OH

Home | Current Version | Previous Version | Text Only | Print | Product List | Glossary Off
Versions: 1 2 3 4 5 6 7 8 9 10 11 12 13 14 15 16 17 18 19 20 21 22 23 24 25 26 27 28 29 30 31 32 33 34 35 36 37 38 39 40 41 42 43 44 45 46 47 48 49 50

386
ASUS41 KCLE 060512
RWRCLE
OHIO REGIONAL WEATHER ROUNDUP
NATIONAL WEATHER SERVICE WILMINGTON, OH
1200 AM EST TUE DEC 06 2016

NOTE: "FAIR" INDICATES FEW OR NO CLOUDS BELOW 12,000 FEET WITH NO
SIGNIFICANT WEATHER AND/OR OBSTRUCTIONS TO VISIBILITY.

OHZ001>008-015>018-024>027-034-035-043-044-060600-
   NORTHWEST OHIO

CITY           SKY/WX    TMP DP  RH WIND       PRES   REMARKS
DEFIANCE       FAIR      28  24  85 E5        30.02S FOG     WCI  23
FINDLAY        FAIR      29  24  82 E7        30.00S WCI  22
TOLEDO EXPRESS FAIR      25  25 100 CALM      30.03S
TOLEDO EXEC    FAIR      30  28  92 E5        30.05S WCI  25
LIMA           FAIR      31  28  89 SE10      29.97F WCI  22
$$

OHZ009>014-019>023-028>033-038-089-060600-
   NORTHEAST OHIO

CITY           SKY/WX    TMP DP  RH WIND       PRES   REMARKS
CLE-HOPKINS    FAIR      32  25  75 E7        30.08S WCI  26
CLE-LAKEFRONT  FAIR      35  27  72 E6        30.07S
CUY CO. ARPT   NOT AVBL
LORAIN-ELYRIA  FAIR      29  25  85 E6        30.05F WCI  23
ASHTABULA      FAIR      27  26  96 CALM      30.10R
AKRON-CANTON   FAIR      32  25  75 E10       30.05R WCI  24
WOOSTER        FAIR      26  22  84 SE3       30.04F
MANSFIELD      FAIR      29  26  89 SE9       30.01S WCI  20
YOUNGSTOWN     FAIR      27  25  92 E6        30.08S WCI  20
$$

OHZ042-051>053-060>062-070>072-077>081-060600-
  SOUTHWEST OHIO

CITY           SKY/WX    TMP DP  RH WIND       PRES   REMARKS
CINC-COVINGTON CLOUDY    40  33  76 NE12      29.89F
CINC-LUNKEN    FAIR      39  34  82 NE7       29.94F
HAMILTON       FAIR      37  31  78 NE7       29.95F
DAYTON         MOCLDY    33  29  85 E10       29.96F WCI  25
WRIGHT-PAT AFB CLOUDY    35  31  87 E9        29.96F WCI  27
DAYTON GENERAL FAIR      36  29  75 E7        29.93F
WILMINGTON     FAIR      35  31  85 E8        29.94F WCI  29
$$

OHZ036-037-039>041-045>050-054>059-063>069-073>076-082>088-060600-
  CENTRAL AND SOUTHEAST OHIO

CITY           SKY/WX    TMP DP  RH WIND       PRES   REMARKS
COLUMBUS       FAIR      34  30  85 E9        29.99F WCI  27
OSU AIRPORT    FAIR      29  26  89 NE6       29.99F WCI  23
BOLTON FIELD   FAIR      33  30  88 E7        29.99F WCI  27
RICKENBACK AFB FAIR      32  30  91 E7        29.98F WCI  26
NEWARK         FAIR      31  27  85 NE3       30.00F
MARION         FAIR      30  26  85 SE8       30.00F WCI  22
LANCASTER      FAIR      35  30  82 E6        30.00F
ZANESVILLE     FAIR      33  27  78 E5        30.00F WCI  29
NEW PHILLY     FAIR      26  25  96 CALM      30.05F
$$




USA.gov is the U.S. government's official web portal to all federal, state and local government web resources and services.